Location: Moscow
(39.1664°N, 94.5419°W)
Time: 06:28:47
(UTC+00:00)

Daily predictions for brighter satellites

Satellite Brightness Start Highest point End
(mag) Time Altitude Azimuth Time Altitude Azimuth Time Altitude Azimuth
Cosmos 2237 Rocket 4.1 12:06:51 10° NW 12:07:01 10° NW 12:07:54 10° NW
CBERS-1 4.4 12:01:55 10° NNE 12:07:02 68° ESE 12:12:06 10° S
Cosmos 1025 Rocket 3.0 12:04:46 10° S 12:09:07 83° W 12:13:29 10° N
Cosmos 2297 3.7 12:08:16 10° NNW 12:13:55 80° WSW 12:19:30 10° SSE
Cosmos 1674 Rocket 3.7 12:10:50 10° SSW 12:15:06 49° W 12:19:25 10° N
Lacrosse 5 rocket 3.2 12:13:21 10° N 12:15:30 16° NNE 12:17:37 10° ENE
Cosmos 1943 3.1 12:10:21 10° SSW 12:15:57 77° WNW 12:21:35 10° NNE
Cosmos 1484 Rocket 2.5 12:13:37 10° N 12:17:06 58° WNW 12:20:32 10° SSW
Cosmos 1072 Rocket 4.5 12:12:12 10° NNW 12:18:17 70° W 12:24:26 10° S
Cosmos 2369 Rocket 2.2 12:13:08 10° NNW 12:18:48 71° WSW 12:24:28 10° SSE
Cosmos 1400 Rocket 2.8 12:15:25 10° NNW 12:18:59 49° W 12:22:29 10° S
USA 229 DEB 3.9 12:14:21 10° WSW 12:19:49 38° NW 12:25:53 10° NNE
USA 229 3.9 12:14:34 10° WSW 12:20:01 39° NW 12:26:06 10° NNE
BREEZE-M DEB (TANK) 2.0 12:18:42 10° SW 12:21:03 85° SE 12:23:52 10° ENE
IRS-1D 4.4 12:17:46 10° NNW 12:21:42 24° WNW 12:25:36 10° WSW
USA 267 4.3 12:17:06 10° NNE 12:22:22 27° NNW 12:27:37 10° WNW
Helios 1A Rocket 3.6 12:19:56 10° SSW 12:22:43 24° W 12:25:32 10° NW
Lacrosse 4 Rocket 3.6 12:23:28 10° N 12:26:25 20° NE 12:29:20 10° ESE
Cosmos 2221 Rocket 3.7 12:22:27 10° SSW 12:26:54 59° W 12:31:23 10° N
Cosmos 1812 3.8 12:26:14 10° NW 12:27:52 14° W 12:29:28 10° WSW
Cosmos 968 Rocket 3.7 12:28:19 10° NNW 12:33:24 50° WSW 12:38:26 10° S
SL-12 R/B(2) 4.4 23:19:01 10° S 23:26:22 55° ESE 23:35:07 10° NE
Cosmos 2082 Rocket 3.9 23:26:07 10° NNE 23:28:37 13° NE 23:31:06 10° ENE
Cosmos 1943 Rocket 2.9 23:23:45 10° SSE 23:28:45 34° ESE 23:33:44 10° NE
Cosmos 2278 Rocket 2.9 23:24:11 10° SSE 23:29:08 33° ESE 23:34:08 10° NE
Aureole 3 Rocket 4.0 23:29:41 10° SE 23:31:26 14° E 23:33:08 10° NE
IRS-1C 4.3 23:26:54 10° SE 23:31:58 48° ENE 23:37:05 10° N
Cosmos 1975 Rocket 3.6 23:29:04 10° N 23:33:05 36° ENE 23:37:07 10° SE
Iridium 4 Rocket 4.4 23:29:45 10° SSW 23:34:53 52° W 23:39:37 10° N
ATLAS 5 CENTAUR R/B 2.3 23:30:46 10° NNW 23:35:05 40° NE 23:40:20 10° ESE
MOS 1 Rocket 4.0 23:36:47 10° SE 23:40:23 27° ENE 23:44:05 10° NNE
COSMO-SKYMED 1 4.0 23:37:46 10° NE 23:40:24 16° E 23:42:59 10° SE
SAR-Lupe-1 4.2 23:37:10 10° SSE 23:40:36 48° ENE 23:44:03 10° N
USA 215 3.3 23:36:43 10° ESE 23:43:11 68° NE 23:49:41 10° NW
Helios 1A Rocket 4.1 23:43:11 10° NE 23:45:19 16° E 23:47:26 10° SE
UNK 4.1 23:40:52 10° N 23:45:27 69° WNW 23:50:01 10° SSW
IGS 5A 4.3 23:46:42 10° S 23:50:34 52° W 23:54:29 10° NNW
SAR-Lupe-4 3.5 23:49:11 10° SSE 23:52:45 87° ENE 23:56:21 10° NNW
RESURS DK-1 3.5 23:51:12 10° N 23:54:18 21° ENE 23:57:09 11° ESE
